Location: Poughquag
(41.6090°N, 73.6820°W)
Time: 20:45:15
(UTC-04:00)

CUBESAT XI-V - Pass Details

Date: 21 April 2024
Orbit: 657 x 680 km, 98.2° (Epoch: 23 May)

Event Time Altitude Azimuth Distance (km) Brightness Sun altitude
Exits shadow 02:01:14 23° 54° (NE) 1,421 ? -34.1°
Drops below altitude 10° 02:04:18 10° 14° (NNE) 2,119 ? -33.9°
Sets 02:06:53 0° 0° (N) 3,034 ? -33.7°
